Baltimore, MD

8:25 PM EDT on August 21, 2017 (GMT -0400)
Baltimore-Washington International

Weather History for KBWI - June, 2013

Change the Weather History Date:

Saturday, June 15, 2013

  Actual Average Record
Temperature  
Mean Temperature 71 °F 72 °F  
Max Temperature 83 °F 83 °F 101 °F (1994)
Min Temperature 58 °F 62 °F 47 °F (1978)
Degree Days  
Heating Degree Days 0 0  
Month to date heating degree days 0 13  
Since 1 June heating degree days 0 13  
Since 1 July heating degree days 4486 4762  
Cooling Degree Days 6 8  
Month to date cooling degree days 115 93  
Year to date cooling degree days 246 177  
Since 1 June cooling degree days 115 93  
Growing Degree Days 20 (Base 50)    
Moisture  
Dew Point 55 °F    
Average Humidity 59    
Maximum Humidity 84    
Minimum Humidity 33    
Precipitation  
Precipitation 0.00 in 0.11 in 1.17 in (1880)
Month to date precipitation 6.25 1.80  
Year to date precipitation 20.11 18.83  
Snow  
Snow 0.00 in 0.00 in - ()
Month to date snowfall 0.0 0.0  
Since 1 July snowfall 8.0 20.1  
Snow Depth 0.00 in    
Sea Level Pressure  
Sea Level Pressure 30.01 in    
Wind  
Wind Speed 5 mph (WNW)    
Max Wind Speed 17 mph    
Max Gust Speed 23 mph    
Visibility 10 miles    
Events      
T = Trace of Precipitation, MM = Missing Value Source: NWS Daily Summary

Daily Weather History Graph

Daily Weather History Graph

Search for Another Location

Airport or City:

Trip Planner

Search our weather history database for the weather conditions in past years. The results will help you decide how hot, cold, wet, or windy it might be!

Date:

Astronomy

Jun. 15, 2013 Rise Set
Actual Time 5:39 AM EDT 8:34 PM EDT
Civil Twilight 5:07 AM EDT 9:06 PM EDT
Nautical Twilight 4:27 AM EDT 9:47 PM EDT
Astronomical Twilight 3:40 AM EDT 10:34 PM EDT
Moon 12:09 PM EDT (6/15) 12:11 AM EDT (6/15)
Length of Visible Light 15h 59m
Length of Day
14h 54m
Waxing Crescent, 39% of the Moon is Illuminated
Jun 15
Waxing Crescent
Jun 16
First Quarter
Jun 23
Full
Jun 30
Last Quarter
Jul 8
New

Hourly Weather History & Observations

Time (EDT) Temp. Heat Index Dew Point Humidity Pressure Visibility Wind Dir Wind Speed Gust Speed Precip Events Conditions
12:54 AM 64.9 °F - 55.9 °F 73% 29.96 in 10.0 mi Calm Calm - N/A   Partly Cloudy
1:54 AM 64.0 °F - 55.9 °F 75% 29.97 in 10.0 mi Calm Calm - N/A   Partly Cloudy
2:54 AM 64.0 °F - 55.9 °F 75% 29.97 in 10.0 mi Calm Calm - N/A   Clear
3:54 AM 64.0 °F - 55.0 °F 73% 29.98 in 10.0 mi NW 3.5 mph - N/A   Clear
4:54 AM 61.0 °F - 55.9 °F 83% 29.97 in 10.0 mi West 3.5 mph - N/A   Clear
5:54 AM 60.1 °F - 55.9 °F 86% 30.00 in 10.0 mi West 4.6 mph - N/A   Clear
6:54 AM 64.0 °F - 55.9 °F 75% 30.03 in 10.0 mi West 3.5 mph - N/A   Clear
7:54 AM 69.1 °F - 57.9 °F 68% 30.05 in 10.0 mi WNW 5.8 mph - N/A   Partly Cloudy
8:54 AM 72.0 °F - 57.0 °F 59% 30.06 in 10.0 mi Variable 5.8 mph - N/A   Partly Cloudy
9:54 AM 75.9 °F - 55.0 °F 48% 30.06 in 10.0 mi Variable 5.8 mph - N/A   Scattered Clouds
10:54 AM 77.0 °F - 55.9 °F 48% 30.05 in 10.0 mi WNW 6.9 mph - N/A   Scattered Clouds
11:54 AM 79.0 °F - 55.9 °F 45% 30.05 in 10.0 mi Variable 6.9 mph - N/A   Scattered Clouds
12:54 PM 80.1 °F 79.9 °F 53.1 °F 39% 30.04 in 10.0 mi NNW 10.4 mph 19.6 mph N/A   Scattered Clouds
1:54 PM 80.1 °F 79.9 °F 53.1 °F 39% 30.01 in 10.0 mi WNW 9.2 mph 17.3 mph N/A   Scattered Clouds
2:54 PM 81.0 °F - 51.1 °F 35% 30.00 in 10.0 mi WNW 12.7 mph 18.4 mph N/A   Scattered Clouds
3:54 PM 81.0 °F - 50.0 °F 34% 30.00 in 10.0 mi WSW 6.9 mph 19.6 mph N/A   Mostly Cloudy
4:54 PM 82.0 °F - 50.0 °F 33% 29.99 in 10.0 mi WNW 15.0 mph 21.9 mph N/A   Mostly Cloudy
5:54 PM 80.1 °F 79.9 °F 53.1 °F 39% 29.99 in 10.0 mi West 8.1 mph - N/A   Mostly Cloudy
6:54 PM 79.0 °F - 52.0 °F 39% 29.99 in 10.0 mi West 9.2 mph - N/A   Scattered Clouds
7:54 PM 77.0 °F - 52.0 °F 42% 30.00 in 10.0 mi West 3.5 mph - N/A   Scattered Clouds
8:54 PM 71.1 °F - 55.0 °F 57% 30.00 in 10.0 mi Calm Calm - N/A   Scattered Clouds
9:54 PM 66.9 °F - 55.9 °F 68% 30.01 in 10.0 mi Calm Calm - N/A   Scattered Clouds
10:54 PM 66.0 °F - 57.0 °F 73% 30.01 in 10.0 mi Calm Calm - N/A   Partly Cloudy
11:54 PM 64.0 °F - 57.9 °F 80% 30.02 in 10.0 mi Calm Calm - N/A   Partly Cloudy